When you browse on this site, cookies collect data to enhance your experience and personalize the content and advertising you see.
Visit our Privacy Policy to learn more. By continuing to use the site, you agree to this use of cookies and data.

Météo par heure à Tymoshchenkove

Ce jour, 13 Juillet, Lundi

Heure Température Précipitation Vent Pression Humidité
00:00 +19°C° 0 mm 2 m/s 742 mmHg 78%
01:00 +19°C° 0 mm 2 m/s 741 mmHg 80%
02:00 +18°C° 0 mm 2 m/s 741 mmHg 88%
03:00 +18°C° 0 mm 3 m/s 741 mmHg 89%
04:00 +18°C° 0 mm 4 m/s 741 mmHg 91%
05:00 +17°C° 0 mm 5 m/s 741 mmHg 93%
06:00 +19°C° 0 mm 5 m/s 741 mmHg 91%
07:00 +19°C° 0 mm 5 m/s 741 mmHg 89%
08:00 +19°C° 0 mm 6 m/s 741 mmHg 86%
09:00 +19°C° 0 mm 6 m/s 741 mmHg 85%
10:00 +19°C° 0 mm 6 m/s 741 mmHg 84%
11:00 +20°C° 0 mm 6 m/s 741 mmHg 83%
12:00 +20°C° 0 mm 6 m/s 741 mmHg 82%
13:00 +20°C° 0 mm 6 m/s 741 mmHg 82%
14:00 +20°C° 0 mm 6 m/s 741 mmHg 81%
15:00 +18°C° 0 mm 7 m/s 741 mmHg 81%
16:00 +17°C° 0 mm 7 m/s 741 mmHg 82%
17:00 +16°C° 0 mm 7 m/s 741 mmHg 83%
18:00 +15°C° 0 mm 7 m/s 741 mmHg 84%
19:00 +15°C° 0 mm 7 m/s 740 mmHg 85%
20:00 +14°C° 0 mm 6 m/s 740 mmHg 85%
21:00 +14°C° 0 mm 6 m/s 740 mmHg 85%
22:00 +14°C° 0 mm 6 m/s 740 mmHg 84%
23:00 +14°C° 0 mm 6 m/s 740 mmHg 84%

Demain, 14 Juillet, Mardi

Heure Température Précipitation Vent Pression Humidité
00:00 +14°C° 0 mm 6 m/s 740 mmHg 84%
01:00 +14°C° 0 mm 6 m/s 739 mmHg 84%
02:00 +14°C° 0 mm 6 m/s 739 mmHg 84%
03:00 +13°C° 0.1 mm 6 m/s 739 mmHg 85%
04:00 +13°C° 0.1 mm 6 m/s 739 mmHg 86%
05:00 +13°C° 0.1 mm 6 m/s 738 mmHg 87%
06:00 +13°C° 0.2 mm 6 m/s 739 mmHg 87%
07:00 +14°C° 0.2 mm 6 m/s 739 mmHg 88%
08:00 +14°C° 0.2 mm 6 m/s 739 mmHg 88%
09:00 +14°C° 0.5 mm 6 m/s 739 mmHg 89%
10:00 +14°C° 0.5 mm 6 m/s 739 mmHg 91%
11:00 +14°C° 0.5 mm 6 m/s 739 mmHg 92%
12:00 +14°C° 0.3 mm 6 m/s 739 mmHg 91%
13:00 +14°C° 0.3 mm 6 m/s 739 mmHg 91%
14:00 +15°C° 0.3 mm 7 m/s 739 mmHg 90%
15:00 +14°C° 1.6 mm 7 m/s 739 mmHg 92%
16:00 +14°C° 1.6 mm 7 m/s 739 mmHg 94%
17:00 +14°C° 1.6 mm 7 m/s 739 mmHg 95%
18:00 +14°C° 4.1 mm 7 m/s 740 mmHg 96%
19:00 +14°C° 4.1 mm 7 m/s 740 mmHg 96%
20:00 +13°C° 4.1 mm 8 m/s 740 mmHg 96%
21:00 +12°C° 2.8 mm 7 m/s 740 mmHg 96%
22:00 +12°C° 2.8 mm 7 m/s 740 mmHg 95%
23:00 +13°C° 2.8 mm 6 m/s 740 mmHg 95%

Après-demain, 15 Juillet, Mercredi

Heure Température Précipitation Vent Pression Humidité
00:00 +13°C° 0.7 mm 6 m/s 740 mmHg 95%
01:00 +13°C° 0.7 mm 6 m/s 740 mmHg 95%
02:00 +13°C° 0.7 mm 6 m/s 740 mmHg 95%
03:00 +13°C° 0.2 mm 5 m/s 741 mmHg 94%
04:00 +13°C° 0.2 mm 5 m/s 741 mmHg 94%
05:00 +12°C° 0.2 mm 4 m/s 741 mmHg 94%
06:00 +13°C° 0 mm 5 m/s 741 mmHg 91%
07:00 +14°C° 0 mm 5 m/s 742 mmHg 87%
08:00 +15°C° 0 mm 5 m/s 742 mmHg 84%
09:00 +17°C° 0.1 mm 6 m/s 742 mmHg 77%
10:00 +19°C° 0.1 mm 6 m/s 742 mmHg 70%
11:00 +20°C° 0.1 mm 7 m/s 742 mmHg 63%
12:00 +20°C° 0.1 mm 7 m/s 742 mmHg 63%
13:00 +21°C° 0.1 mm 7 m/s 743 mmHg 63%
14:00 +21°C° 0.1 mm 7 m/s 743 mmHg 63%
15:00 +20°C° 0.2 mm 6 m/s 743 mmHg 67%
16:00 +20°C° 0.2 mm 6 m/s 743 mmHg 70%
17:00 +20°C° 0.2 mm 5 m/s 743 mmHg 74%
18:00 +18°C° 0.1 mm 4 m/s 743 mmHg 79%
19:00 +17°C° 0.1 mm 3 m/s 743 mmHg 83%
20:00 +15°C° 0.1 mm 2 m/s 744 mmHg 87%
21:00 +14°C° 0 mm 2 m/s 744 mmHg 88%
22:00 +13°C° 0 mm 2 m/s 744 mmHg 89%
23:00 +12°C° 0 mm 2 m/s 744 mmHg 90%

16 Juillet, Jeudi

Heure Température Précipitation Vent Pression Humidité
00:00 +12°C° 0 mm 2 m/s 744 mmHg 89%
01:00 +12°C° 0 mm 1 m/s 744 mmHg 88%
02:00 +12°C° 0 mm 1 m/s 744 mmHg 87%
03:00 +12°C° 0 mm 1 m/s 744 mmHg 87%
04:00 +12°C° 0 mm 1 m/s 744 mmHg 87%
05:00 +12°C° 0 mm 1 m/s 744 mmHg 87%
06:00 +14°C° 0 mm 2 m/s 744 mmHg 83%
07:00 +16°C° 0 mm 2 m/s 744 mmHg 79%
08:00 +18°C° 0 mm 3 m/s 744 mmHg 75%
09:00 +19°C° 0 mm 3 m/s 744 mmHg 70%
10:00 +20°C° 0 mm 3 m/s 744 mmHg 65%
11:00 +21°C° 0 mm 3 m/s 744 mmHg 60%
12:00 +22°C° 0 mm 3 m/s 744 mmHg 58%
13:00 +22°C° 0 mm 3 m/s 744 mmHg 56%
14:00 +24°C° 0 mm 3 m/s 744 mmHg 54%
15:00 +22°C° 0 mm 3 m/s 744 mmHg 57%
16:00 +22°C° 0 mm 3 m/s 744 mmHg 59%
17:00 +22°C° 0 mm 3 m/s 743 mmHg 62%
18:00 +20°C° 0 mm 2 m/s 744 mmHg 67%
19:00 +18°C° 0 mm 2 m/s 744 mmHg 72%
20:00 +18°C° 0 mm 1 m/s 744 mmHg 77%
21:00 +16°C° 0 mm 1 m/s 744 mmHg 78%
22:00 +15°C° 0 mm 1 m/s 744 mmHg 80%
23:00 +14°C° 0 mm 0 m/s 744 mmHg 81%

17 Juillet, Vendredi

Heure Température Précipitation Vent Pression Humidité
00:00 +15°C° 0 mm 1 m/s 744 mmHg 81%
01:00 +14°C° 0 mm 1 m/s 744 mmHg 81%
02:00 +14°C° 0 mm 1 m/s 744 mmHg 81%
03:00 +14°C° 0 mm 1 m/s 744 mmHg 81%
04:00 +14°C° 0 mm 1 m/s 744 mmHg 81%
05:00 +15°C° 0 mm 1 m/s 744 mmHg 81%
06:00 +18°C° 0 mm 1 m/s 744 mmHg 76%
07:00 +19°C° 0 mm 1 m/s 744 mmHg 71%
08:00 +21°C° 0 mm 1 m/s 745 mmHg 66%
09:00 +22°C° 0 mm 1 m/s 745 mmHg 63%
10:00 +23°C° 0 mm 1 m/s 745 mmHg 60%
11:00 +25°C° 0 mm 1 m/s 745 mmHg 57%
12:00 +25°C° 0 mm 1 m/s 745 mmHg 56%
13:00 +26°C° 0 mm 1 m/s 745 mmHg 54%
14:00 +26°C° 0 mm 2 m/s 745 mmHg 53%
15:00 +26°C° 0.2 mm 2 m/s 745 mmHg 56%
16:00 +26°C° 0.2 mm 2 m/s 745 mmHg 60%
17:00 +25°C° 0.2 mm 2 m/s 745 mmHg 63%
18:00 +24°C° 0 mm 2 m/s 745 mmHg 69%
19:00 +22°C° 0 mm 1 m/s 745 mmHg 75%
20:00 +20°C° 0 mm 1 m/s 745 mmHg 81%
21:00 +19°C° 0 mm 1 m/s 745 mmHg 81%
22:00 +19°C° 0 mm 1 m/s 745 mmHg 82%
23:00 +17°C° 0 mm 0 m/s 745 mmHg 83%

18 Juillet, Samedi

Heure Température Précipitation Vent Pression Humidité
00:00 +16°C° 0 mm 0 m/s 745 mmHg 84%
01:00 +16°C° 0 mm 0 m/s 745 mmHg 84%
02:00 +18°C° 0 mm 1 m/s 745 mmHg 85%
03:00 +16°C° 0 mm 0 m/s 745 mmHg 85%
04:00 +16°C° 0 mm 0 m/s 746 mmHg 84%
05:00 +16°C° 0 mm 0 m/s 746 mmHg 84%
06:00 +18°C° 0 mm 0 m/s 746 mmHg 79%
07:00 +20°C° 0 mm 0 m/s 746 mmHg 74%
08:00 +21°C° 0 mm 0 m/s 746 mmHg 69%
09:00 +24°C° 0.1 mm 1 m/s 746 mmHg 65%
10:00 +26°C° 0.1 mm 1 m/s 746 mmHg 62%
11:00 +27°C° 0.1 mm 1 m/s 746 mmHg 58%
12:00 +27°C° 0.3 mm 1 m/s 746 mmHg 57%
13:00 +27°C° 0.3 mm 1 m/s 746 mmHg 55%
14:00 +28°C° 0.3 mm 1 m/s 746 mmHg 53%
15:00 +28°C° 0.3 mm 1 m/s 746 mmHg 57%
16:00 +27°C° 0.3 mm 2 m/s 746 mmHg 61%
17:00 +27°C° 0.3 mm 2 m/s 746 mmHg 64%
18:00 +25°C° 0.3 mm 2 m/s 746 mmHg 70%
19:00 +23°C° 0.3 mm 2 m/s 746 mmHg 76%
20:00 +21°C° 0.3 mm 2 m/s 746 mmHg 82%
21:00 +20°C° 0 mm 2 m/s 746 mmHg 84%
22:00 +19°C° 0 mm 2 m/s 746 mmHg 86%
23:00 +19°C° 0 mm 2 m/s 746 mmHg 88%
Voir plus